Back to catalog

FENGYUN 1C DEB

LostPO
NORAD 32369·DEBRIS·🇨🇳 China

Launched May 10, 1999 from Taiyuan Satellite Launch Center

Loading…

Next Passes (next 24 hours)

TLE

StaleSource: Space-Track

Epoch: Mar 20, 2012, 12:42 UTC

1 32369U 99025CZN 12080.52920810  .00003817  00000-0  25855-2 0  9992
2 32369  98.3754 187.6885 0433631 243.6489 175.0900 13.63389724222138

Track FENGYUN 1C DEB in real time with AllMySat

Download on the App Store